OPS 4682 DEB, 18270

Orbit data source: Space-Track

OPS 4682 DEB, 18270 is space debris in LEO originally from a launch on Sat, 03 Apr 1965 UTC launched from the Air Force Western Test Range (AFWTR). Debris objects in space refer to the collection of defunct objects orbiting the Earth. Examples of debris include non-operational satellites, rocket bodies, and fragments generated from explosions, collisions, or faulty payload assembly.

Loading next visibility...
Identifier
18270, 1965-027Z
Orbit
LEO
Country
Flag of USUS
Related business
Manufacturer
Unknown
Mission
Spacecraft
Bus & Motor
Unknown
Mass
Unknown
Launch date (UTC)
1965-04-03 (61 years ago)
Launch vehicle
Unknown
Launch site
Air Force Western Test Range (AFWTR)
Object type
Payload
Rocket body
Debris
Shape & HBR
Unknown shape, 0.1 m
Radar Cross Section
Small (<0.1 m²)

Expand to show TLE details & history
Last TLE update: 16 hours ago

TLE from 16 hours ago
0 OPS 4682 DEB
1 18270U 65027Z   25295.16915023  .00000881  00000-0  30226-2 0  9990
2 18270  90.2362 354.5509 0028023  10.7566  45.5449 12.97066318885738
Epoch: 2025-10-22T04:03Z
TLE epoch observation values (Epoch: 2025-10-22T04:03:34.579Z)
Latitude
56.62117°
Longitude
-97.5465°
Altitude
1,268.138 km
Speed
7.234 km/s
True Right ascension
23h 36m 46s
True Declination
56° 28' 25"
Sunlit
Object was in full shadow at epoch
Visualization orbit readout
Latitude
Unknown
Longitude
Unknown
Altitude
Unknown
Speed
Unknown
Apparent Right ascension
Unknown
Apparent Declination
Unknown
Sunlit
N/A
Visualization observer readout
Local Sidereal Time
15:29:10
Azimuth
Unknown
Elevation
Unknown
Doppler factor
Unknown
Orbital elements
Apogee altitude
1,292.168 km
Perigee altitude
1,249.3 km
Semi-major axis
7,648.871 km
Eccentricity
0.0028
Inclination
90.2362°
RAAN
354.5509°
Arg. of periapsis
10.7566°
True anomaly
45.77468°
Mean anomaly
45.5449°
Eccentric anomaly
45.65973°
Mean motion
3.2445 °/min
Orbital period
110.96 mins
BSTAR
0.0030226
Loading maneuver chart data...
Computing Atmospheric mass density...
Loading historical data...
Loading historical data...
Loading historical data...
Loading historical data...
Loading historical data...
Loading historical data...
Loading historical data...

Documentation

Showing up to 5 results
|